[[{"header":{"parameterUnit":"m.s-1","parameterCategory":1,"la1":30.2991,"la2":30.254,"lo1":-89.0895,"lo2":-89.0444,"dy":0.0017,"dx":0.0017,"nx":28,"ny":28,"refTime":"2024-08-30T03:00:00:Z","depth":0,"parameterNumber":2,"parameterNumberName":"U-component_of_WINDS"},"data":[0,0,0,0,0,0,0,0,0,0,0,0,0,0,0,0,0,0,0,0,0,0,0,0,0,0,0,0,0,0,0,0,0,0,0,0,0,0,0,0,0,0,0,0,0,0,0,0,0,0,0,0,0,0,0,0,0,0,-2.9391,-2.9391,0,-2.9389,-2.9389,-2.9389,-2.9314,-2.9312,-2.931,-2.9308,-2.9305,-2.9307,-2.9309,0,0,0,0,0,0,0,0,0,0,0,0,0,-2.933,-2.9331,-2.9391,-2.9391,-2.9391,-2.9389,-2.9389,-2.9389,-2.9314,-2.9312,-2.9309,-2.9307,-2.9305,-2.9307,-2.9309,0,0,0,0,0,0,0,0,0,0,0,0,0,-2.9345,-2.9332,-2.9391,-2.9353,-2.935,-2.9389,-2.9389,-2.9389,-2.9314,-2.9312,-2.9309,-2.9306,-2.9304,-2.9306,-2.9309,-2.9383,0,0,-2.9317,-2.9318,0,0,0,0,0,0,0,0,-2.9344,-2.9347,-2.9359,-2.9356,-2.9352,-2.9348,-2.9366,-2.9387,-2.9315,-2.9328,-2.9308,-2.9304,-2.9322,-2.9323,-2.9329,-2.9383,-2.9383,-2.9317,-2.9319,-2.932,-2.9321,0,0,0,0,0,0,0,-2.9343,-2.9347,-2.939,-2.9359,-2.9355,-2.9336,-2.9335,-2.937,-2.9341,-2.9327,-2.9321,-2.9322,-2.932,-2.9327,-2.9328,-2.9383,-2.9317,-2.9319,-2.9321,-2.9322,-2.9498,-2.9501,0,0,0,0,0,0,-2.9347,-2.9347,-2.939,-2.939,-2.9341,-2.934,-2.9339,-2.9353,-2.9341,-2.9336,-2.9324,-2.9318,-2.9323,-2.9325,-2.9328,-2.9413,-2.932,-2.9322,-2.9324,-2.9495,-2.9499,-2.9502,0,0,0,0,0,0,-2.9346,-2.9352,-2.939,-2.9367,-2.937,-2.9344,-2.936,-2.9354,-2.9361,-2.9339,-2.9334,-2.9337,-2.9321,-2.9324,-2.937,-2.9412,-2.9324,-2.9326,-2.9491,-2.9496,-2.9501,-2.9585,0,0,0,0,0,0,-2.9345,-2.9352,-2.938,-2.9368,-2.9372,-2.9432,-2.9363,-2.9356,-2.9366,-2.9358,-2.9349,-2.9345,-2.9319,-2.9367,-2.9373,-2.9414,-2.9328,-2.9487,-2.9494,-2.9499,-2.9579,-2.9592,-2.9604,0,0,0,0,0,-2.9343,-2.9404,-2.9382,-2.9387,-2.9406,-2.9435,-2.9437,-2.9406,-2.9369,-2.9397,-2.9383,-2.9345,-2.9407,-2.9372,-2.9378,-2.9421,-2.9485,-2.9492,-2.9499,-2.9573,-2.959,-2.9604,0,0,0,0,0,0,-2.9421,-2.9401,-2.9377,-2.9435,-2.9438,-2.9422,-2.9456,-2.9425,-2.9438,-2.943,-2.9391,-2.939,-2.9442,-2.9436,-2.9397,-2.9492,-2.9439,-2.9448,-2.9493,-2.9509,-2.9522,-2.9521,-2.933,0,0,0,0,0,-2.9445,-2.9471,-2.9452,-2.9506,-2.9508,-2.9483,-2.9494,-2.947,-2.9471,-2.9471,-2.946,-2.9462,-2.9482,-2.9496,-2.9513,-2.9578,-2.9575,-2.9611,-2.9624,-2.9634,-2.9641,-2.9675,-2.9691,-2.9525,-2.9525,-2.9525,0,0,-2.9495,-2.9487,-2.9506,-2.9521,-2.952,-2.9547,-2.9483,-2.9515,-2.9534,-2.9476,-2.9518,-2.9511,-2.951,-2.9566,-2.959,-2.9563,-2.9687,-2.9643,-2.9652,-2.9653,-2.9684,-2.97,-2.9713,-2.953,-2.9529,-2.9528,0,0,-2.9599,-2.9597,-2.964,-2.9641,-2.964,-2.9623,-2.9634,-2.9623,-2.9616,-2.9658,-2.9615,-2.9638,-2.9673,-2.9674,-2.9679,-2.9786,-2.9751,-2.9793,-2.9858,-2.9891,-2.9904,-2.9916,-2.9952,-2.9966,-2.98,-2.9801,-2.9801,0,-2.9661,-2.9699,-2.9667,-2.9701,-2.9709,-2.9658,-2.9702,-2.9704,-2.9709,-2.9716,-2.9686,-2.9729,-2.9725,-2.978,-2.9806,-2.9813,-2.9823,-2.9792,-2.9905,-2.9916,-2.9926,-2.9961,-2.9975,-2.9805,-2.9805,-2.9804,-2.9804,0,-2.9775,-2.9803,-2.9838,-2.9844,-2.9857,-2.9896,-2.9869,-2.9885,-2.9862,-2.9848,-2.9891,-2.9885,-2.99,-2.9912,-2.9888,-2.9964,-2.9947,-2.9912,-2.9857,-2.9948,-2.9979,-2.9992,-2.9813,-2.9811,-2.9809,-2.9808,0,0,-2.9926,-2.9914,-2.9928,-2.993,-2.9926,-2.9947,-2.9984,-2.9999,-3.0013,-3.0019,-3.0048,-3.008,-3.0047,-3.0054,-3.003,-3.006,-3.0143,-3.0021,-3.002,-3.0043,-3.0225,-3.025,-3.0266,-3.0121,-3.0124,-3.0126,-3.0225,0,-3.0025,-3.0087,-3.006,-3.0125,-3.0149,-3.0103,-3.0135,-3.0136,-3.0125,-3.0144,-3.0131,-3.0153,-3.011,-3.0113,-3.014,-3.0127,-3.0179,-3.012,-3.0147,-3.0149,-3.0147,-3.0283,-3.0309,-3.0403,-3.0237,-3.0239,-3.0241,0,-3.0149,-3.016,-3.0228,-3.0219,-3.0229,-3.0258,-3.0269,-3.0289,-3.0289,-3.0279,-3.0287,-3.0257,-3.0292,-3.024,-3.0288,-3.0249,-3.0259,-3.0254,-3.0257,-3.0257,-3.0199,-3.0285,-3.0432,-3.0446,-3.026,-3.0258,-3.0257,0,-3.0251,-3.0283,-3.0327,-3.033,-3.0322,-3.0344,-3.0342,-3.0339,-3.035,-3.036,-3.0367,-3.0381,-3.0389,-3.0401,-3.0376,-3.034,-3.0427,-3.0373,-3.0419,-3.042,-3.0437,-3.0436,-3.0587,-3.0447,-3.0447,-3.0447,-3.0446,0,-3.0363,-3.0406,-3.0372,-3.0399,-3.0446,-3.0415,-3.0462,-3.0454,-3.0453,-3.0477,-3.0439,-3.0463,-3.0429,-3.045,-3.0431,-3.0473,-3.0477,-3.0469,-3.0463,-3.0472,-3.0473,-3.0476,-3.0468,-3.045,-3.045,-3.0449,-3.0448,0,-3.0484,-3.0463,-3.0508,-3.0497,-3.0496,-3.053,-3.0521,-3.0545,-3.0532,-3.0564,-3.0569,-3.0548,-3.057,-3.0547,-3.0568,-3.0555,-3.0612,-3.0597,-3.0612,-3.0607,-3.0653,-3.0649,-3.081,-3.0829,-3.0679,-3.068,-3.0682,0,-3.0556,-3.0588,-3.0581,-3.0595,-3.0595,-3.0618,-3.0629,-3.06,-3.0612,-3.0616,-3.064,-3.066,-3.0673,-3.0712,-3.0698,-3.0714,-3.0698,-3.0754,-3.07,-3.0708,-3.0697,-3.0695,-3.0698,-3.0764,-3.0766,-3.0767,-3.0768,0,-3.0687,-3.0675,-3.0692,-3.0706,-3.0721,-3.073,-3.0737,-3.0751,-3.072,-3.0737,-3.076,-3.077,-3.0792,-3.0812,-3.0824,-3.0821,-3.079,-3.0786,-3.0797,-3.0805,-3.0811,-3.0807,-3.0639,-3.0782,-3.078,-3.0779,-3.0779,-3.0778,-3.0784,-3.081,-3.0809,-3.083,-3.0832,-3.0839,-3.0862,-3.0851,-3.087,-3.0885,-3.0867,-3.0895,-3.0895,-3.0908,-3.0909,-3.093,-3.0907,-3.0923,-3.0927,-3.0931,-3.0937,-3.081,-3.0933,-3.0932,-3.0932,-3.0931,-3.0931,0,-3.0911,-3.0909,-3.0928,-3.0939,-3.0955,-3.0925,-3.0931,-3.0947,-3.0972,-3.0975,-3.0989,-3.1016,-3.1035,-3.1023,-3.1039,-3.1058,-3.1044,-3.1063,-3.1061,-3.106,-3.0958,-3.0946,-3.1074,-3.1074,-3.1074,-3.1074,-3.1074,-3.1074,-3.0979,-3.1021,-3.101,-3.1053,-3.105,-3.1077,-3.1083,-3.1089,-3.1091,-3.1122,-3.1138,-3.1131,-3.1128,-3.1143,-3.116,-3.1156,-3.1163,-3.1187,-3.1178,-3.1082,-3.1068,-3.1054,-3.1043,-3.1189,-3.1189,-3.1278,-3.1279,-3.1279]},{"header":{"parameterUnit":"m.s-1","parameterCategory":1,"la1":30.2991,"la2":30.254,"lo1":-89.0895,"lo2":-89.0444,"dy":0.0017,"dx":0.0017,"nx":28,"ny":28,"refTime":"2024-08-30T03:00:00:Z","depth":0,"parameterNumber":3,"parameterNumberName":"V-component_of_WINDS"},"data":[0,0,0,0,0,0,0,0,0,0,0,0,0,0,0,0,0,0,0,0,0,0,0,0,0,0,0,0,0,0,0,0,0,0,0,0,0,0,0,0,0,0,0,0,0,0,0,0,0,0,0,0,0,0,0,0,0,0,2.3808,2.3809,0,2.3924,2.3925,2.3927,2.3958,2.3958,2.3957,2.3956,2.4074,2.4077,2.4081,0,0,0,0,0,0,0,0,0,0,0,0,0,2.3613,2.3616,2.3808,2.3809,2.3811,2.3924,2.3925,2.3927,2.3958,2.3958,2.3957,2.3956,2.4072,2.4077,2.4081,0,0,0,0,0,0,0,0,0,0,0,0,0,2.371,2.3617,2.3808,2.384,2.3844,2.3923,2.3925,2.3927,2.3959,2.3957,2.3956,2.3956,2.4071,2.4076,2.4082,2.4137,0,0,2.4099,2.4101,0,0,0,0,0,0,0,0,2.3704,2.3717,2.3834,2.3838,2.3843,2.3926,2.3899,2.3997,2.3959,2.3915,2.3956,2.3955,2.4025,2.4034,2.4058,2.4142,2.4147,2.4099,2.4103,2.4105,2.4107,0,0,0,0,0,0,0,2.3697,2.3712,2.3854,2.3836,2.3841,2.3849,2.3861,2.3918,2.3974,2.3919,2.3921,2.3935,2.4027,2.4053,2.4061,2.4149,2.4099,2.4104,2.4108,2.411,2.4284,2.4285,0,0,0,0,0,0,2.3685,2.3706,2.385,2.3857,2.377,2.3853,2.3867,2.39,2.3974,2.3984,2.3935,2.3936,2.4044,2.4055,2.4065,2.4135,2.4105,2.4111,2.4114,2.4282,2.4284,2.4285,0,0,0,0,0,0,2.3681,2.3698,2.3845,2.3783,2.3802,2.3857,2.3894,2.3903,2.3928,2.3986,2.3996,2.3951,2.4043,2.4058,2.4119,2.4139,2.4113,2.4118,2.4281,2.4283,2.4284,2.4273,0,0,0,0,0,0,2.3675,2.3696,2.3718,2.3783,2.3805,2.3897,2.3895,2.3906,2.3938,2.394,2.4004,2.4014,2.4044,2.411,2.4124,2.4146,2.4123,2.4279,2.4282,2.4284,2.4272,2.4274,2.4276,0,0,0,0,0,2.3668,2.371,2.3719,2.3736,2.3833,2.3898,2.3911,2.3945,2.394,2.3962,2.3999,2.4011,2.4135,2.4116,2.4132,2.4156,2.4278,2.4281,2.4284,2.4271,2.4274,2.4276,0,0,0,0,0,0,2.3645,2.3719,2.373,2.3793,2.3839,2.3903,2.3932,2.3947,2.3995,2.3995,2.4035,2.4049,2.4107,2.4138,2.4116,2.4213,2.4207,2.4213,2.4191,2.4195,2.4197,2.4188,2.4127,0,0,0,0,0,2.3647,2.3694,2.3756,2.3806,2.3829,2.3876,2.3906,2.3928,2.3978,2.3997,2.4039,2.4085,2.4135,2.4166,2.4215,2.4276,2.4291,2.4301,2.4303,2.4305,2.431,2.4345,2.435,2.4294,2.4294,2.4294,0,0,2.3652,2.3699,2.3726,2.3803,2.3841,2.3888,2.3893,2.3943,2.3978,2.4004,2.4065,2.4097,2.4152,2.4214,2.4243,2.4241,2.4328,2.4308,2.4309,2.4313,2.4348,2.4353,2.4358,2.4296,2.4296,2.4296,0,0,2.3686,2.3726,2.3772,2.3811,2.3869,2.39,2.3911,2.3974,2.3996,2.4058,2.4079,2.4121,2.4205,2.4243,2.4274,2.4322,2.4335,2.4337,2.4349,2.4382,2.4387,2.4391,2.4408,2.4414,2.4341,2.4341,2.4341,0,2.3685,2.3758,2.3794,2.3843,2.3876,2.3903,2.395,2.3986,2.4056,2.4078,2.4075,2.4182,2.422,2.4291,2.4303,2.4327,2.4341,2.433,2.4383,2.4388,2.4392,2.4409,2.4415,2.4341,2.4341,2.4341,2.4341,0,2.3754,2.3804,2.3834,2.3903,2.3939,2.3987,2.403,2.4063,2.4082,2.4114,2.4176,2.4223,2.4282,2.4301,2.432,2.4375,2.4372,2.4375,2.4369,2.4396,2.4413,2.442,2.4341,2.4341,2.4341,2.4341,0,0,2.3776,2.3864,2.3875,2.3906,2.3972,2.4011,2.406,2.4118,2.4145,2.4193,2.4235,2.4306,2.431,2.4344,2.4368,2.4397,2.4433,2.4398,2.44,2.4403,2.4496,2.4493,2.45,2.4442,2.4443,2.4445,2.4492,0,2.3818,2.3907,2.3941,2.4014,2.406,2.4086,2.4129,2.4174,2.4205,2.4249,2.4283,2.4332,2.4334,2.4355,2.4385,2.4422,2.4452,2.4419,2.4481,2.4483,2.4467,2.4509,2.4506,2.4548,2.4499,2.45,2.4501,0,2.388,2.3929,2.4006,2.4067,2.4087,2.4125,2.4181,2.4223,2.4274,2.4294,2.4333,2.4355,2.4407,2.4397,2.4469,2.4446,2.4473,2.4495,2.4498,2.4505,2.4493,2.4517,2.4563,2.4569,2.4511,2.451,2.451,0,2.3888,2.3974,2.4031,2.4057,2.4129,2.4155,2.4186,2.4237,2.4269,2.4318,2.434,2.4393,2.4423,2.4464,2.45,2.4489,2.4568,2.4562,2.4586,2.4586,2.4602,2.46,2.4652,2.4619,2.4619,2.4619,2.4619,0,2.3932,2.3978,2.4036,2.4071,2.4124,2.4162,2.4213,2.4246,2.429,2.4332,2.4358,2.4396,2.4441,2.4485,2.4513,2.4569,2.4582,2.46,2.4607,2.4598,2.4595,2.4616,2.4614,2.4621,2.462,2.462,2.462,0,2.3951,2.3991,2.4056,2.4119,2.4136,2.4171,2.4225,2.426,2.4292,2.4345,2.436,2.441,2.4463,2.4503,2.4572,2.4591,2.465,2.4657,2.4633,2.4636,2.4659,2.4656,2.4726,2.4737,2.4696,2.4697,2.4697,0,2.3976,2.4013,2.408,2.411,2.4141,2.4189,2.4223,2.4262,2.4295,2.4357,2.4384,2.444,2.4486,2.457,2.4613,2.4666,2.4674,2.4695,2.4682,2.4672,2.4675,2.4672,2.4676,2.4697,2.4697,2.4697,2.4697,0,2.4017,2.4035,2.4083,2.4138,2.4177,2.4222,2.4268,2.4291,2.4338,2.4374,2.443,2.4466,2.4537,2.4591,2.4648,2.468,2.4697,2.4701,2.471,2.4701,2.4685,2.4694,2.4638,2.4699,2.4699,2.4699,2.4699,2.4699,2.404,2.4074,2.4126,2.4178,2.4217,2.4259,2.4295,2.4331,2.4378,2.4439,2.4459,2.4516,2.4567,2.4646,2.4678,2.4723,2.4723,2.4735,2.4738,2.4741,2.474,2.4678,2.4733,2.4733,2.4733,2.4733,2.4733,0,2.4082,2.4117,2.4165,2.4228,2.4269,2.4281,2.4332,2.4366,2.4416,2.4462,2.4507,2.457,2.4623,2.467,2.4725,2.4752,2.4761,2.4765,2.4764,2.4771,2.4737,2.4724,2.4757,2.4757,2.4757,2.4757,2.4757,2.4757,2.4109,2.4167,2.4191,2.4268,2.4302,2.4359,2.4387,2.4425,2.4462,2.4532,2.4577,2.4607,2.4653,2.4712,2.4761,2.4773,2.4792,2.4795,2.4809,2.4776,2.4773,2.4771,2.4759,2.4798,2.4798,2.4839,2.4839,2.484]}]]